Location: Killam
(52.7910°N, 111.8608°W)
Time: 00:17:09
(UTC+00:00)

A-11 Canister half - Pass Details

Date: 19 February 2026
Orbit: 1525 x 1683 km, 47.3° (Epoch: 9 March)

Event Time Altitude Azimuth Distance (km) Brightness Sun altitude
Rises 03:00:51 0° 267° (W) 4,690 13.0 -21.0°
Reaches altitude 10° 03:03:56 10° 264° (W) 3,699 12.1 -21.4°
Maximum altitude 03:13:02 62° 187° (S) 1,685 9.1 -22.8°
Enters shadow 03:17:14 35° 122° (ESE) 2,279 9.4 -23.4°
Drops below altitude 10° 03:22:10 10° 110° (ESE) 3,716 - -24.1°
Sets 03:25:16 0° 107° (ESE) 4,713 - -24.6°
